This is the latest recevied weather packets stored in our database for station/object IK6IHU-3. If no packets are shown the sender has not sent any weather packets the latest 1 day(s).
| Time | Temp. | Humidity | Pressure | Rain* | Wind** | Luminosity | Snow |
|---|---|---|---|---|---|---|---|
| 1777961422 | 16.11° C | 61% | 1014.1 hPa | 0 mm | 0.89 m/s, 317° | 0 W/m² | - |
| 1777961362 | 16.11° C | 62% | 1014.1 hPa | 0 mm | 0.45 m/s, 303° | 0 W/m² | - |
| 1777961302 | 16.11° C | 63% | 1014 hPa | 0 mm | 0.45 m/s, 291° | 0 W/m² | - |
| 1777961243 | 16.11° C | 64% | 1014.1 hPa | 0 mm | 0.45 m/s, 281° | 0 W/m² | - |
| 1777961183 | 16.11° C | 63% | 1014 hPa | 0 mm | 0.89 m/s, 274° | 0 W/m² | - |
| 1777961122 | 16.11° C | 62% | 1013.9 hPa | 0 mm | 0.89 m/s, 276° | 0 W/m² | - |
| 1777961062 | 15.56° C | 62% | 1014 hPa | 0 mm | 0.45 m/s, 284° | 0 W/m² | - |
| 1777961002 | 15.56° C | 63% | 1013.8 hPa | 0 mm | 0.45 m/s, 297° | 0 W/m² | - |
| 1777960942 | 15.56° C | 64% | 1014.1 hPa | 0 mm | 0 m/s | 0 W/m² | - |
| 1777960882 | 15.56° C | 64% | 1013.9 hPa | 0 mm | 0 m/s | 0 W/m² | - |
| 1777960823 | 15.56° C | 64% | 1013.9 hPa | 0 mm | 0 m/s | 0 W/m² | - |
| 1777960762 | 15.56° C | 64% | 1013.8 hPa | 0 mm | 0 m/s | 0 W/m² | - |
| 1777960702 | 15.56° C | 65% | 1013.8 hPa | 0 mm | 0 m/s | 0 W/m² | - |
| 1777960642 | 15.56° C | 65% | 1014 hPa | 0 mm | 0 m/s | 0 W/m² | - |
| 1777960582 | 15.56° C | 65% | 1013.8 hPa | 0 mm | 0 m/s | 0 W/m² | - |
| 1777960522 | 15.56° C | 65% | 1013.9 hPa | 0 mm | 0.45 m/s, 357° | 0 W/m² | - |
| 1777960462 | 15.56° C | 64% | 1013.7 hPa | 0 mm | 0.45 m/s, 344° | 0 W/m² | - |
| 1777960402 | 15.56° C | 64% | 1013.8 hPa | 0 mm | 0.89 m/s, 331° | 0 W/m² | - |
| 1777960342 | 15.56° C | 64% | 1013.9 hPa | 0 mm | 0.45 m/s, 320° | 0 W/m² | - |
| 1777960282 | 15.56° C | 64% | 1013.8 hPa | 0 mm | 0.45 m/s, 311° | 0 W/m² | - |
| 1777960222 | 15.56° C | 64% | 1013.9 hPa | 0 mm | 0.89 m/s, 303° | 0 W/m² | - |
| 1777960162 | 15.56° C | 64% | 1013.8 hPa | 0 mm | 0.89 m/s, 296° | 0 W/m² | - |
| 1777960102 | 15° C | 64% | 1013.9 hPa | 0 mm | 0.45 m/s, 292° | 0 W/m² | - |
| 1777960042 | 15° C | 65% | 1013.8 hPa | 0 mm | 0.45 m/s, 292° | 0 W/m² | - |
| 1777959982 | 15° C | 66% | 1013.7 hPa | 0 mm | 0.45 m/s, 292° | 0 W/m² | - |
* Rain latest hour (hover to see other rain measurements)
** Current wind speed in m/s (hover to see current wind gust speed)